Miscellaneous Local Product
Issued by NWS Hastings, NE

Home | Current Version | Previous Version | Graphics & Text | Print | Product List | Glossary On
Versions: 1 2 3 4 5 6 7 8 9 10 11 12 13 14 15 16 17 18 19 20 21 22 23 24 25 26 27 28 29 30 31 32 33 34 35 36 37 38 39 40 41 42 43 44 45 46 47 48 49 50
890
AXUS43 KGID 240202
MISGRI

GID CWA HOURLY WEATHER ROUNDUP
NATIONAL WEATHER SERVICE HASTINGS NE
900 PM CDT MON APR 23 2018

NOTE: "FAIR" INDICATES FEW OR NO CLOUDS BELOW 12,000 FEET WITH NO
SIGNIFICANT WEATHER AND/OR OBSTRUCTIONS TO VISIBILITY.

...SOUTH CENTRAL NEBRASKA...

CITY           SKY/WX    TMP DP  RH WIND       PRES   REMARKS
GRAND ISLAND   PTCLDY    62  41  46 CALM      30.07R
KEARNEY        CLEAR     59  41  51 SE7       30.07R
HASTINGS       CLOUDY    63  37  38 CALM      30.07R
ORD            PTCLDY    53  36  52 CALM      30.06R
YORK             N/A     57  32  38 CALM      30.07R
AURORA         CLOUDY    59  35  39 SE6       30.06S
LEXINGTON      PTCLDY    58  40  52 SE7       30.06R
HOLDREGE       CLEAR     56  40  56 S3        30.06S
HEBRON         CLEAR     59  35  40 CALM      30.05S

...NEBRASKA PANHANDLE...

CITY           SKY/WX    TMP DP  RH WIND       PRES   REMARKS
CHADRON        RAIN      41  38  89 W20G31    30.18R
ALLIANCE       LGT RAIN  47  45  93 N25G32    30.09R
SCOTTSBLUFF    RAIN      45  45 100 NW23G40   30.18R
SIDNEY         CLOUDY    58  43  57 CALM      30.04R

...WESTERN AND NORTH CENTRAL NEBRASKA...

CITY           SKY/WX    TMP DP  RH WIND       PRES   REMARKS
VALENTINE      CLOUDY    62  41  46 SE7       30.05
AINSWORTH      PTCLDY    55  41  59 SE7       30.06S
ONEILL         MOCLDY    62  35  36 E3        30.08R
BROKEN BOW     PTCLDY    56  40  55 E5        30.06R
IMPERIAL       CLEAR     53  40  61 E8        30.03R
NORTH PLATTE   CLEAR     57  40  52 S7        30.04R
MCCOOK         PTCLDY    57  41  55 SE8       30.04R

...EASTERN NEBRASKA...

CITY           SKY/WX    TMP DP  RH WIND       PRES   REMARKS
NORFOLK        CLOUDY    59  33  37 E3        30.07R
SO SIOUX CITY  CLEAR     61  39  44 E10       30.08R
TEKAMAH        CLEAR     58  31  35 E9        30.06S
COLUMBUS       CLOUDY    60  33  36 E7        30.08R
ALBION         CLOUDY    62  39  43 CALM      30.07S
OMAHA EPPLEY   PTCLDY    64  30  27 E9        30.06R
MILLARD        CLEAR     64  35  34 CALM      30.06S
LINCOLN        CLEAR     56  32  40 NE8       30.06S
NEBRASKA CITY  CLEAR     63  32  31 E7        30.06S
BEATRICE       CLEAR     63  30  28 E5        30.05S
FALLS CITY     CLEAR     63  29  27 NE5       30.04R

...NORTHERN KANSAS...

CITY           SKY/WX    TMP DP  RH WIND       PRES   REMARKS
GOODLAND       CLEAR     51  40  65 SE10      30.03S
HILL CITY      CLEAR     60  40  47 SE5       30.05S
NORTON         CLEAR     59  39  47 E3        30.05R
PHILLIPSBURG   CLEAR     57  41  54 E8        30.06R
BELOIT         CLEAR     55  45  67 CALM      30.05R
HAYS           CLEAR     58  43  57 SE8       30.06R
RUSSELL        CLEAR     63  41  44 E5        30.05R
CONCORDIA      CLEAR     61  34  36 E3        30.04S
SALINA         CLEAR     64  44  48 CALM      30.04R
TOPEKA         CLEAR     64  34  32 N3        30.02R



USA.gov is the U.S. government's official web portal to all federal, state and local government web resources and services.